Weather History for Glens Falls, NY

Change the Weather History Date:

Sunday, October 5, 2014

  Actual Average Record
Temperature  
Mean Temperature 48 °F 50 °F  
Max Temperature 59 °F 63 °F 87 °F (1951)
Min Temperature 37 °F 39 °F 24 °F (1996)
Degree Days  
Heating Degree Days 17 15  
Month to date heating degree days 35 69  
Since 1 July heating degree days 227 354  
Cooling Degree Days 0 0  
Month to date cooling degree days 0 0  
Year to date cooling degree days 385 351  
Moisture  
Dew Point 37 °F    
Average Humidity 64    
Maximum Humidity 92    
Minimum Humidity 36    
Precipitation  
Precipitation 0.00 in 0.12 in 1.43 in (1962)
Month to date precipitation 0.73 0.59  
Year to date precipitation 27.90 29.78  
Sea Level Pressure  
Sea Level Pressure 29.79 in    
Wind  
Wind Speed 5 mph (SW)    
Max Wind Speed 15 mph    
Max Gust Speed 20 mph    
Visibility 10 miles    
Events      
T = Trace of Precipitation, MM = Missing Value Source: NWS Daily Summary

Daily Weather History Graph

Daily Weather History Graph

Search for Another Location

Airport:

Trip Planner

Search our weather history database for the weather conditions in past years. The results will help you decide how hot, cold, wet, or windy it might be!

Date:

Astronomy

Oct. 05, 2014 Rise Set
Actual Time 6:56 AM EDT 6:28 PM EDT
Civil Twilight 6:27 AM EDT 6:56 PM EDT
Nautical Twilight 5:54 AM EDT 7:29 PM EDT
Astronomical Twilight 5:21 AM EDT 8:03 PM EDT
Moon 4:48 PM EDT (10/5) 3:24 AM EDT (10/5)
Length of Visible Light 12h 29m
Length of Day
11h 32m
Waxing Gibbous, 89% of the Moon is Illuminated
Oct 5
Waxing Gibbous
Oct 8
Full
Oct 15
Last Quarter
Oct 23
New
Oct 30
First Quarter

Hourly Weather History & Observations

Time (EDT) Temp. Windchill Dew Point Humidity Pressure Visibility Wind Dir Wind Speed Gust Speed Precip Events Conditions
12:53 AM 50.0 °F - 43.0 °F 77% 29.65 in 10.0 mi WSW 5.8 mph - N/A   Overcast
1:53 AM 46.9 °F - 42.1 °F 83% 29.67 in 10.0 mi WSW 5.8 mph - N/A   Partly Cloudy
2:53 AM 45.0 °F 43.5 °F 42.1 °F 90% 29.66 in 10.0 mi WSW 3.5 mph - N/A   Mostly Cloudy
3:53 AM 45.0 °F 40.6 °F 41.0 °F 86% 29.67 in 10.0 mi SW 8.1 mph - N/A   Scattered Clouds
4:53 AM 45.0 °F 43.5 °F 39.0 °F 80% 29.69 in 10.0 mi WSW 3.5 mph - N/A   Scattered Clouds
5:53 AM 45.0 °F 41.8 °F 37.9 °F 76% 29.71 in 10.0 mi WSW 5.8 mph - N/A   Partly Cloudy
6:53 AM 43.0 °F 38.8 °F 36.0 °F 76% 29.73 in 10.0 mi WSW 6.9 mph - N/A   Clear
7:53 AM 44.1 °F 41.5 °F 36.0 °F 73% 29.75 in 10.0 mi SW 4.6 mph - N/A   Clear
8:53 AM 46.9 °F - 36.0 °F 66% 29.78 in 10.0 mi SSW 6.9 mph - N/A   Clear
9:53 AM 48.9 °F - 36.0 °F 61% 29.77 in 10.0 mi SW 6.9 mph - N/A   Clear
10:53 AM 52.0 °F - 37.9 °F 59% 29.79 in 10.0 mi South 9.2 mph - N/A   Clear
11:53 AM 53.1 °F - 37.9 °F 57% 29.79 in 10.0 mi SSW 10.4 mph - N/A   Partly Cloudy
12:53 PM 55.0 °F - 37.9 °F 53% 29.78 in 10.0 mi SW 9.2 mph 17.3 mph N/A   Clear
1:53 PM 57.0 °F - 32.0 °F 39% 29.77 in 10.0 mi Variable 3.5 mph 16.1 mph N/A   Clear
2:53 PM 59.0 °F - 32.0 °F 36% 29.78 in 10.0 mi WSW 11.5 mph - N/A   Clear
3:53 PM 57.9 °F - 33.1 °F 39% 29.79 in 10.0 mi WSW 10.4 mph - N/A   Clear
4:53 PM 57.0 °F - 35.1 °F 44% 29.81 in 10.0 mi WSW 6.9 mph - N/A   Partly Cloudy
5:53 PM 55.0 °F - 37.0 °F 51% 29.83 in 10.0 mi SW 4.6 mph - N/A   Scattered Clouds
6:53 PM 48.0 °F - 39.0 °F 71% 29.86 in 10.0 mi SW 3.5 mph - N/A   Clear
7:53 PM 44.1 °F 42.5 °F 39.0 °F 82% 29.88 in 10.0 mi NW 3.5 mph - N/A   Clear
8:53 PM 42.1 °F - 37.9 °F 85% 29.91 in 10.0 mi Calm Calm - N/A   Clear
9:53 PM 39.9 °F - 37.0 °F 89% 29.93 in 10.0 mi Calm Calm - N/A   Clear
10:53 PM 39.0 °F - 36.0 °F 89% 29.94 in 10.0 mi Calm Calm - N/A   Clear
11:53 PM 37.9 °F - 36.0 °F 93% 29.96 in 10.0 mi Calm Calm - N/A   Clear